• In Uzbekistan
  • List of Countries
  • For 7 days
  • Water Temperature
  • Satellite Maps
  • Weather Map
  • Weather Widgets
  • user-avatar
    Login

    Hourly Weather Milowka

    Today, 18 July, Wednesday

    Time Temperature Precipitation Wind Pressure Humidity
    00:00 +18°C° 0.2 mm 4 mps 727 mmHg 96%
    01:00 +18°C° 0.2 mm 4 mps 727 mmHg 96%
    02:00 +18°C° 0.1 mm 3 mps 727 mmHg 96%
    03:00 +18°C° 0.1 mm 3 mps 727 mmHg 96%
    04:00 +18°C° 0.1 mm 3 mps 727 mmHg 97%
    05:00 +18°C° 0.1 mm 3 mps 727 mmHg 96%
    06:00 +18°C° 0.1 mm 2 mps 727 mmHg 95%
    07:00 +18°C° 0.1 mm 2 mps 727 mmHg 94%
    08:00 +19°C° 0.3 mm 2 mps 727 mmHg 92%
    09:00 +20°C° 0.3 mm 2 mps 727 mmHg 90%
    10:00 +20°C° 0.3 mm 2 mps 727 mmHg 87%
    11:00 +21°C° 0.2 mm 2 mps 727 mmHg 84%
    12:00 +22°C° 0.2 mm 3 mps 727 mmHg 81%
    13:00 +22°C° 0.2 mm 3 mps 727 mmHg 78%
    14:00 +24°C° 0.2 mm 3 mps 727 mmHg 77%
    15:00 +24°C° 0.2 mm 3 mps 727 mmHg 76%
    16:00 +25°C° 0.2 mm 3 mps 727 mmHg 75%
    17:00 +24°C° 0.5 mm 3 mps 727 mmHg 80%
    18:00 +22°C° 0.5 mm 3 mps 727 mmHg 84%
    19:00 +21°C° 0.5 mm 3 mps 728 mmHg 89%
    20:00 +20°C° 1 mm 3 mps 728 mmHg 92%
    21:00 +20°C° 1 mm 3 mps 728 mmHg 94%
    22:00 +19°C° 1 mm 3 mps 728 mmHg 96%
    23:00 +19°C° 0.7 mm 3 mps 729 mmHg 96%

    Tomorrow, 19 July, Thursday

    Time Temperature Precipitation Wind Pressure Humidity
    00:00 +20°C° 0.7 mm 4 mps 729 mmHg 97%
    01:00 +20°C° 0.7 mm 4 mps 729 mmHg 97%
    02:00 +20°C° 0.5 mm 4 mps 729 mmHg 97%
    03:00 +20°C° 0.5 mm 4 mps 729 mmHg 97%
    04:00 +20°C° 0.5 mm 4 mps 730 mmHg 96%
    05:00 +20°C° 0.7 mm 4 mps 730 mmHg 96%
    06:00 +20°C° 0.7 mm 4 mps 730 mmHg 96%
    07:00 +20°C° 0.7 mm 5 mps 730 mmHg 95%
    08:00 +20°C° 0.4 mm 5 mps 731 mmHg 94%
    09:00 +20°C° 0.4 mm 5 mps 731 mmHg 92%
    10:00 +21°C° 0.4 mm 5 mps 731 mmHg 91%
    11:00 +21°C° 0.4 mm 5 mps 731 mmHg 90%
    12:00 +21°C° 0.4 mm 5 mps 731 mmHg 89%
    13:00 +21°C° 0.4 mm 5 mps 731 mmHg 88%
    14:00 +21°C° 0.3 mm 5 mps 731 mmHg 87%
    15:00 +21°C° 0.3 mm 5 mps 731 mmHg 86%
    16:00 +21°C° 0.3 mm 5 mps 731 mmHg 85%
    17:00 +21°C° 0.2 mm 5 mps 732 mmHg 87%
    18:00 +20°C° 0.2 mm 5 mps 732 mmHg 89%
    19:00 +20°C° 0.2 mm 4 mps 732 mmHg 91%
    20:00 +19°C° 0.1 mm 4 mps 732 mmHg 92%
    21:00 +19°C° 0.1 mm 4 mps 732 mmHg 94%
    22:00 +18°C° 0.1 mm 4 mps 732 mmHg 95%
    23:00 +18°C° 0 mm 4 mps 732 mmHg 96%

    Day after tomorrow, 20 July, Friday

    Time Temperature Precipitation Wind Pressure Humidity
    00:00 +18°C° 0 mm 4 mps 732 mmHg 96%
    01:00 +17°C° 0 mm 4 mps 732 mmHg 97%
    02:00 +17°C° 0 mm 4 mps 732 mmHg 97%
    03:00 +17°C° 0 mm 4 mps 732 mmHg 96%
    04:00 +17°C° 0 mm 3 mps 732 mmHg 96%
    05:00 +18°C° 0 mm 4 mps 732 mmHg 95%
    06:00 +18°C° 0 mm 4 mps 732 mmHg 93%
    07:00 +19°C° 0 mm 4 mps 733 mmHg 92%
    08:00 +20°C° 0.1 mm 4 mps 733 mmHg 87%
    09:00 +21°C° 0.1 mm 4 mps 733 mmHg 83%
    10:00 +22°C° 0.1 mm 4 mps 733 mmHg 78%
    11:00 +23°C° 0.2 mm 4 mps 733 mmHg 73%
    12:00 +25°C° 0.2 mm 4 mps 733 mmHg 68%
    13:00 +26°C° 0.2 mm 5 mps 732 mmHg 63%
    14:00 +26°C° 0.2 mm 4 mps 732 mmHg 64%
    15:00 +26°C° 0.2 mm 4 mps 732 mmHg 64%
    16:00 +26°C° 0.2 mm 4 mps 732 mmHg 65%
    17:00 +23°C° 0.3 mm 4 mps 732 mmHg 72%
    18:00 +22°C° 0.3 mm 3 mps 732 mmHg 78%
    19:00 +21°C° 0.3 mm 2 mps 732 mmHg 84%
    20:00 +20°C° 0.1 mm 2 mps 732 mmHg 87%
    21:00 +19°C° 0.1 mm 2 mps 732 mmHg 89%
    22:00 +18°C° 0.1 mm 2 mps 732 mmHg 92%
    23:00 +17°C° 0 mm 2 mps 732 mmHg 93%

    21 July, Saturday

    Time Temperature Precipitation Wind Pressure Humidity
    00:00 +17°C° 0 mm 2 mps 732 mmHg 93%
    01:00 +17°C° 0 mm 2 mps 732 mmHg 94%
    02:00 +16°C° 0 mm 2 mps 732 mmHg 94%
    03:00 +16°C° 0 mm 2 mps 732 mmHg 94%
    04:00 +16°C° 0 mm 2 mps 732 mmHg 95%
    05:00 +17°C° 0 mm 2 mps 732 mmHg 91%
    06:00 +20°C° 0 mm 1 mps 732 mmHg 87%
    07:00 +21°C° 0 mm 1 mps 732 mmHg 83%
    08:00 +23°C° 0 mm 1 mps 732 mmHg 76%
    09:00 +24°C° 0 mm 1 mps 732 mmHg 69%
    10:00 +26°C° 0 mm 1 mps 732 mmHg 62%
    11:00 +26°C° 0 mm 1 mps 732 mmHg 60%
    12:00 +27°C° 0 mm 1 mps 732 mmHg 57%
    13:00 +27°C° 0 mm 2 mps 732 mmHg 55%
    14:00 +27°C° 0.1 mm 1 mps 731 mmHg 56%
    15:00 +27°C° 0.1 mm 1 mps 731 mmHg 57%
    16:00 +27°C° 0.1 mm 1 mps 731 mmHg 59%
    17:00 +25°C° 0.3 mm 1 mps 731 mmHg 64%
    18:00 +24°C° 0.3 mm 1 mps 731 mmHg 69%
    19:00 +23°C° 0.3 mm 1 mps 731 mmHg 75%
    20:00 +21°C° 0.1 mm 1 mps 731 mmHg 77%
    21:00 +20°C° 0.1 mm 1 mps 731 mmHg 79%
    22:00 +19°C° 0.1 mm 1 mps 731 mmHg 82%
    23:00 +19°C° 0 mm 1 mps 731 mmHg 84%

    22 July, Sunday

    Time Temperature Precipitation Wind Pressure Humidity
    00:00 +16°C° 0 mm 0 mps 731 mmHg 85%
    01:00 +16°C° 0 mm 0 mps 730 mmHg 87%
    02:00 +16°C° 0 mm 0 mps 730 mmHg 88%
    03:00 +15°C° 0 mm 0 mps 730 mmHg 89%
    04:00 +15°C° 0 mm 0 mps 730 mmHg 90%
    05:00 +18°C° 0 mm 1 mps 730 mmHg 86%
    06:00 +20°C° 0 mm 1 mps 730 mmHg 82%
    07:00 +21°C° 0 mm 1 mps 730 mmHg 79%
    08:00 +23°C° 0.2 mm 1 mps 730 mmHg 76%
    09:00 +24°C° 0.2 mm 2 mps 730 mmHg 73%
    10:00 +25°C° 0.2 mm 2 mps 730 mmHg 70%
    11:00 +25°C° 0.4 mm 2 mps 730 mmHg 68%
    12:00 +26°C° 0.4 mm 2 mps 730 mmHg 67%
    13:00 +26°C° 0.4 mm 2 mps 730 mmHg 65%
    14:00 +26°C° 0.7 mm 2 mps 730 mmHg 65%
    15:00 +26°C° 0.7 mm 2 mps 730 mmHg 66%
    16:00 +26°C° 0.7 mm 2 mps 730 mmHg 66%
    17:00 +25°C° 0.3 mm 1 mps 730 mmHg 69%
    18:00 +24°C° 0.3 mm 1 mps 730 mmHg 73%
    19:00 +22°C° 0.3 mm 1 mps 730 mmHg 77%
    20:00 +21°C° 0 mm 1 mps 730 mmHg 79%
    21:00 +20°C° 0 mm 1 mps 730 mmHg 81%
    22:00 +18°C° 0 mm 2 mps 730 mmHg 84%
    23:00 +18°C° 0 mm 2 mps 730 mmHg 86%

    23 July, Monday

    Time Temperature Precipitation Wind Pressure Humidity
    00:00 +18°C° 0 mm 2 mps 730 mmHg 88%
    01:00 +17°C° 0 mm 2 mps 731 mmHg 90%
    02:00 +17°C° 0 mm 2 mps 731 mmHg 91%
    03:00 +16°C° 0 mm 2 mps 731 mmHg 93%
    04:00 +16°C° 0 mm 1 mps 731 mmHg 95%
    05:00 +17°C° 0.1 mm 2 mps 732 mmHg 93%
    06:00 +18°C° 0.1 mm 3 mps 732 mmHg 91%
    07:00 +19°C° 0.1 mm 3 mps 732 mmHg 88%
    08:00 +20°C° 0.1 mm 4 mps 732 mmHg 82%
    09:00 +22°C° 0.1 mm 4 mps 732 mmHg 75%
    10:00 +23°C° 0.1 mm 5 mps 733 mmHg 68%
    11:00 +23°C° 0 mm 5 mps 733 mmHg 63%
    12:00 +25°C° 0 mm 5 mps 733 mmHg 59%
    13:00 +26°C° 0 mm 5 mps 732 mmHg 54%
    14:00 +26°C° 0 mm 5 mps 732 mmHg 56%
    15:00 +26°C° 0 mm 5 mps 732 mmHg 57%
    16:00 +25°C° 0 mm 5 mps 732 mmHg 59%
    17:00 +23°C° 0 mm 4 mps 732 mmHg 65%
    18:00 +22°C° 0 mm 3 mps 732 mmHg 71%
    19:00 +20°C° 0 mm 3 mps 733 mmHg 78%
    20:00 +19°C° 0 mm 2 mps 733 mmHg 81%
    21:00 +18°C° 0 mm 2 mps 733 mmHg 84%
    22:00 +17°C° 0 mm 2 mps 733 mmHg 87%
    23:00 +17°C° 0 mm 2 mps 733 mmHg 88%
    Show more